Station Historical Data
Daily Summary for October 26, 2017 Units:  English    Metric   Both
Next Day »
Daily Weekly Monthly Yearly Custom
  High: Low: Average:
Temperature: 79.3 °F 62.2 °F 68.4 °F
Dew Point: 51.2 °F 38.7 °F 46.3 °F
Humidity: 56% 31% 46%
Wind Speed: 12.0mph 0.0mph 1.7mph
Wind Gust: 16.0mph - -
Wind- - SE
Pressure: 29.97 in 29.89 in -
Precipitation: 0.00 in    
Historical Graphs
 
 
Tabular Data for October 26, 2017
Time Temperature Dew Point Pressure Wind Wind Speed Wind Gust Humidity Rainfall Rate (Hourly) solar Conditions
00:02 65.4 °F 48.8 °F 29.91 in Calm   5.0 mph 55% 0.00 in 0.00 W/m2
00:05 65.4 °F 49.3 °F 29.90 in Calm   5.0 mph 56% 0.00 in 0.00 W/m2
00:10 65.3 °F 48.7 °F 29.90 in Calm   6.0 mph 55% 0.00 in 0.00 W/m2
00:15 65.3 °F 48.7 °F 29.91 in East 2.0 mph 7.0 mph 55% 0.00 in 0.00 W/m2
00:20 65.2 °F 48.6 °F 29.91 in Calm   6.0 mph 55% 0.00 in 0.00 W/m2
00:25 65.1 °F 49.0 °F 29.91 in Calm   7.0 mph 56% 0.00 in 0.00 W/m2
00:30 65.1 °F 49.0 °F 29.91 in Calm   5.0 mph 56% 0.00 in 0.00 W/m2
00:35 65.0 °F 48.5 °F 29.91 in ESE 8.0 mph 8.0 mph 55% 0.00 in 0.00 W/m2
00:40 65.0 °F 48.9 °F 29.91 in ESE 1.0 mph 9.0 mph 56% 0.00 in 0.00 W/m2
00:45 65.0 °F 48.9 °F 29.91 in ESE 4.0 mph 13.0 mph 56% 0.00 in 0.00 W/m2
00:50 64.9 °F 48.4 °F 29.91 in East 2.0 mph 12.0 mph 55% 0.00 in 0.00 W/m2
00:55 64.9 °F 48.4 °F 29.91 in Calm   9.0 mph 55% 0.00 in 0.00 W/m2
01:00 64.9 °F 48.4 °F 29.91 in ESE 5.0 mph 9.0 mph 55% 0.00 in 0.00 W/m2
01:05 64.8 °F 48.3 °F 29.90 in Calm   9.0 mph 55% 0.00 in 0.00 W/m2
01:10 64.8 °F 48.3 °F 29.91 in East 6.0 mph 9.0 mph 55% 0.00 in 0.00 W/m2
01:15 64.8 °F 48.3 °F 29.91 in ESE 4.0 mph 11.0 mph 55% 0.00 in 0.00 W/m2
01:20 64.7 °F 48.2 °F 29.91 in ESE 4.0 mph 8.0 mph 55% 0.00 in 0.00 W/m2
01:25 64.6 °F 47.6 °F 29.91 in East 6.0 mph 11.0 mph 54% 0.00 in 0.00 W/m2
01:30 64.5 °F 47.5 °F 29.91 in ESE 6.0 mph 9.0 mph 54% 0.00 in 0.00 W/m2
01:35 64.5 °F 47.5 °F 29.90 in Calm   11.0 mph 54% 0.00 in 0.00 W/m2
01:40 64.5 °F 47.5 °F 29.90 in ESE 9.0 mph 9.0 mph 54% 0.00 in 0.00 W/m2
01:45 64.5 °F 47.5 °F 29.90 in Calm   9.0 mph 54% 0.00 in 0.00 W/m2
01:50 64.4 °F 47.4 °F 29.90 in ESE 6.0 mph 6.0 mph 54% 0.00 in 0.00 W/m2
01:55 64.4 °F 47.4 °F 29.90 in Calm   9.0 mph 54% 0.00 in 0.00 W/m2
02:00 64.3 °F 47.3 °F 29.90 in ESE 7.0 mph 9.0 mph 54% 0.00 in 0.00 W/m2
02:05 64.3 °F 46.8 °F 29.90 in ESE 4.0 mph 11.0 mph 53% 0.00 in 0.00 W/m2
02:10 64.2 °F 46.7 °F 29.90 in ESE 5.0 mph 12.0 mph 53% 0.00 in 0.00 W/m2
02:15 64.2 °F 46.7 °F 29.90 in ESE 4.0 mph 12.0 mph 53% 0.00 in 0.00 W/m2
02:20 64.2 °F 46.7 °F 29.90 in ESE 4.0 mph 11.0 mph 53% 0.00 in 0.00 W/m2
02:25 64.2 °F 46.7 °F 29.90 in Calm   9.0 mph 53% 0.00 in 0.00 W/m2
02:30 64.1 °F 46.1 °F 29.90 in ESE 4.0 mph 8.0 mph 52% 0.00 in 0.00 W/m2
02:35 64.1 °F 46.1 °F 29.90 in ESE 6.0 mph 9.0 mph 52% 0.00 in 0.00 W/m2
02:40 64.1 °F 46.1 °F 29.90 in East 1.0 mph 12.0 mph 52% 0.00 in 0.00 W/m2
02:45 64.1 °F 46.1 °F 29.90 in East 2.0 mph 9.0 mph 52% 0.00 in 0.00 W/m2
02:50 64.0 °F 46.0 °F 29.90 in ESE 5.0 mph 8.0 mph 52% 0.00 in 0.00 W/m2
02:55 64.0 °F 46.0 °F 29.90 in ESE 5.0 mph 7.0 mph 52% 0.00 in 0.00 W/m2
03:00 63.9 °F 46.5 °F 29.90 in ESE 2.0 mph 8.0 mph 53% 0.00 in 0.00 W/m2
03:05 63.8 °F 45.9 °F 29.90 in Calm   11.0 mph 52% 0.00 in 0.00 W/m2
03:10 63.8 °F 45.9 °F 29.89 in ESE 4.0 mph 11.0 mph 52% 0.00 in 0.00 W/m2
03:15 63.8 °F 45.9 °F 29.89 in Calm   9.0 mph 52% 0.00 in 0.00 W/m2
03:20 63.7 °F 45.2 °F 29.89 in East 6.0 mph 7.0 mph 51% 0.00 in 0.00 W/m2
03:25 63.7 °F 45.2 °F 29.89 in Calm   11.0 mph 51% 0.00 in 0.00 W/m2
03:30 63.6 °F 45.2 °F 29.89 in Calm   9.0 mph 51% 0.00 in 0.00 W/m2
03:35 63.6 °F 44.6 °F 29.89 in Calm   8.0 mph 50% 0.00 in 0.00 W/m2
03:40 63.6 °F 44.6 °F 29.89 in ESE 1.0 mph 8.0 mph 50% 0.00 in 0.00 W/m2
03:45 63.5 °F 44.0 °F 29.89 in ESE 4.0 mph 7.0 mph 49% 0.00 in 0.00 W/m2
03:50 63.5 °F 44.0 °F 29.89 in Calm   8.0 mph 49% 0.00 in 0.00 W/m2
03:55 63.5 °F 44.0 °F 29.89 in ESE 1.0 mph 8.0 mph 49% 0.00 in 0.00 W/m2
03:56 63.4 °F 43.9 °F 29.89 in ESE 4.0 mph 5.0 mph 49% 0.00 in 0.00 W/m2
04:01 63.4 °F 43.9 °F 29.89 in Calm   5.0 mph 49% 0.00 in 0.00 W/m2
04:06 63.4 °F 44.5 °F 29.89 in Calm   5.0 mph 50% 0.00 in 0.00 W/m2
04:11 63.4 °F 43.9 °F 29.89 in ESE 4.0 mph 6.0 mph 49% 0.00 in 0.00 W/m2
04:16 63.4 °F 43.9 °F 29.89 in Calm   5.0 mph 49% 0.00 in 0.00 W/m2
04:21 63.3 °F 43.3 °F 29.89 in ESE 5.0 mph 5.0 mph 48% 0.00 in 0.00 W/m2
04:26 63.3 °F 43.8 °F 29.89 in ESE 2.0 mph 4.0 mph 49% 0.00 in 0.00 W/m2
04:31 63.3 °F 43.3 °F 29.89 in ESE 2.0 mph 6.0 mph 48% 0.00 in 0.00 W/m2
04:36 63.2 °F 43.2 °F 29.89 in Calm     48% 0.00 in 0.00 W/m2
04:41 63.1 °F 43.7 °F 29.90 in Calm   2.0 mph 49% 0.00 in 0.00 W/m2
04:46 63.0 °F 43.6 °F 29.89 in Calm   6.0 mph 49% 0.00 in 0.00 W/m2
04:51 62.9 °F 43.5 °F 29.90 in Calm   5.0 mph 49% 0.00 in 0.00 W/m2
04:56 62.9 °F 42.9 °F 29.90 in ESE 5.0 mph 7.0 mph 48% 0.00 in 0.00 W/m2
05:01 62.8 °F 42.8 °F 29.90 in ESE 1.0 mph 8.0 mph 48% 0.00 in 0.00 W/m2
05:06 62.7 °F 42.8 °F 29.90 in Calm   4.0 mph 48% 0.00 in 0.00 W/m2
05:11 62.7 °F 42.8 °F 29.90 in Calm   5.0 mph 48% 0.00 in 0.00 W/m2
05:16 62.7 °F 42.8 °F 29.90 in Calm   7.0 mph 48% 0.00 in 0.00 W/m2
05:21 62.7 °F 42.8 °F 29.90 in ESE 5.0 mph 9.0 mph 48% 0.00 in 0.00 W/m2
05:26 62.6 °F 42.7 °F 29.90 in ESE 6.0 mph 6.0 mph 48% 0.00 in 0.00 W/m2
05:31 62.6 °F 42.1 °F 29.90 in ESE 4.0 mph 7.0 mph 47% 0.00 in 0.00 W/m2
05:36 62.5 °F 42.0 °F 29.90 in Calm   9.0 mph 47% 0.00 in 0.00 W/m2
05:41 62.4 °F 41.9 °F 29.90 in East 8.0 mph 8.0 mph 47% 0.00 in 0.00 W/m2
05:47 62.3 °F 41.8 °F 29.90 in ESE 4.0 mph 11.0 mph 47% 0.00 in 0.00 W/m2
05:52 62.2 °F 41.2 °F 29.90 in ESE 1.0 mph 8.0 mph 46% 0.00 in 0.00 W/m2
05:57 62.2 °F 41.7 °F 29.91 in ESE 1.0 mph 9.0 mph 47% 0.00 in 0.00 W/m2
06:02 62.2 °F 41.2 °F 29.91 in Calm   13.0 mph 46% 0.00 in 0.00 W/m2
06:07 62.2 °F 41.2 °F 29.91 in East 8.0 mph 12.0 mph 46% 0.00 in 0.00 W/m2
06:12 62.3 °F 40.1 °F 29.91 in East 8.0 mph 9.0 mph 44% 0.00 in 0.00 W/m2
06:17 62.3 °F 40.1 °F 29.91 in ESE 12.0 mph 14.0 mph 44% 0.00 in 0.00 W/m2
06:22 62.4 °F 39.6 °F 29.91 in East 9.0 mph 11.0 mph 43% 0.00 in 0.00 W/m2
06:27 62.5 °F 40.3 °F 29.91 in East 4.0 mph 9.0 mph 44% 0.00 in 0.00 W/m2
06:32 62.5 °F 40.3 °F 29.91 in East 1.0 mph 11.0 mph 44% 0.00 in 0.00 W/m2
06:37 62.5 °F 39.1 °F 29.91 in East 6.0 mph 13.0 mph 42% 0.00 in 0.00 W/m2
06:42 62.5 °F 39.7 °F 29.91 in ESE 4.0 mph 9.0 mph 43% 0.00 in 0.00 W/m2
06:47 62.6 °F 39.8 °F 29.91 in Calm   13.0 mph 43% 0.00 in 0.00 W/m2
06:52 62.6 °F 39.2 °F 29.91 in Calm   12.0 mph 42% 0.00 in 0.00 W/m2
06:57 62.7 °F 39.3 °F 29.91 in ESE 5.0 mph 13.0 mph 42% 0.00 in 0.00 W/m2
07:02 62.7 °F 39.9 °F 29.91 in ESE 6.0 mph 11.0 mph 43% 0.00 in 0.00 W/m2
07:07 62.7 °F 38.7 °F 29.91 in East 5.0 mph 14.0 mph 41% 0.00 in 0.00 W/m2
07:12 62.7 °F 38.7 °F 29.91 in ESE 8.0 mph 12.0 mph 41% 0.00 in 0.00 W/m2
07:18 62.7 °F 38.7 °F 29.91 in ESE 8.0 mph 14.0 mph 41% 0.00 in 0.00 W/m2
07:23 62.7 °F 39.3 °F 29.91 in Calm   13.0 mph 42% 0.00 in 5.00 W/m2
07:28 62.8 °F 39.4 °F 29.91 in East 1.0 mph 14.0 mph 42% 0.00 in 7.00 W/m2
07:33 62.8 °F 39.4 °F 29.91 in ESE 9.0 mph 14.0 mph 42% 0.00 in 9.00 W/m2
07:38 62.8 °F 39.4 °F 29.91 in Calm   11.0 mph 42% 0.00 in 12.00 W/m2
07:43 62.7 °F 39.3 °F 29.91 in ESE 8.0 mph 12.0 mph 42% 0.00 in 14.00 W/m2
07:48 62.7 °F 39.3 °F 29.91 in ESE 2.0 mph 16.0 mph 42% 0.00 in 18.00 W/m2
07:53 62.7 °F 39.9 °F 29.92 in ESE 2.0 mph 11.0 mph 43% 0.00 in 28.00 W/m2
07:58 62.7 °F 39.3 °F 29.92 in Calm   16.0 mph 42% 0.00 in 39.00 W/m2
08:03 62.6 °F 39.2 °F 29.92 in ESE 11.0 mph 11.0 mph 42% 0.00 in 53.00 W/m2
08:08 62.6 °F 39.8 °F 29.92 in ESE 4.0 mph 13.0 mph 43% 0.00 in 63.00 W/m2
08:13 62.6 °F 39.8 °F 29.93 in ESE 4.0 mph 13.0 mph 43% 0.00 in 84.00 W/m2
08:18 62.6 °F 39.8 °F 29.93 in ESE 2.0 mph 12.0 mph 43% 0.00 in 95.00 W/m2
08:23 62.7 °F 40.5 °F 29.93 in ESE 7.0 mph 12.0 mph 44% 0.00 in 116.00 W/m2
08:28 62.7 °F 40.5 °F 29.94 in East 1.0 mph 11.0 mph 44% 0.00 in 137.00 W/m2
08:33 62.7 °F 40.5 °F 29.94 in Calm   12.0 mph 44% 0.00 in 153.00 W/m2
08:38 62.7 °F 40.5 °F 29.94 in East 7.0 mph 11.0 mph 44% 0.00 in 176.00 W/m2
08:43 62.7 °F 41.1 °F 29.94 in East 2.0 mph 11.0 mph 45% 0.00 in 197.00 W/m2
08:48 62.8 °F 41.2 °F 29.94 in Calm   13.0 mph 45% 0.00 in 211.00 W/m2
08:53 62.9 °F 41.3 °F 29.95 in ESE 1.0 mph 13.0 mph 45% 0.00 in 230.00 W/m2
08:58 63.0 °F 40.2 °F 29.94 in ESE 5.0 mph 9.0 mph 43% 0.00 in 255.00 W/m2
09:01 63.1 °F 40.9 °F 29.95 in Calm   1.0 mph 44% 0.00 in 262.00 W/m2
09:06 63.3 °F 41.0 °F 29.94 in Calm   4.0 mph 44% 0.00 in 278.00 W/m2
09:11 63.5 °F 41.2 °F 29.95 in ESE 8.0 mph 8.0 mph 44% 0.00 in 299.00 W/m2
09:16 63.8 °F 41.5 °F 29.95 in Calm   2.0 mph 44% 0.00 in 313.00 W/m2
09:21 64.0 °F 41.7 °F 29.95 in ESE 6.0 mph 7.0 mph 44% 0.00 in 325.00 W/m2
09:26 64.3 °F 41.3 °F 29.95 in Calm   4.0 mph 43% 0.00 in 343.00 W/m2
09:31 64.5 °F 41.5 °F 29.95 in Calm   5.0 mph 43% 0.00 in 359.00 W/m2
09:36 64.7 °F 42.3 °F 29.95 in Calm     44% 0.00 in 373.00 W/m2
09:41 65.0 °F 42.6 °F 29.95 in Calm     44% 0.00 in 385.00 W/m2
09:46 65.3 °F 42.8 °F 29.95 in ESE 2.0 mph 7.0 mph 44% 0.00 in 397.00 W/m2
09:51 65.6 °F 44.3 °F 29.95 in Calm     46% 0.00 in 413.00 W/m2
09:56 65.9 °F 43.4 °F 29.95 in Calm     44% 0.00 in 422.00 W/m2
10:01 66.1 °F 43.6 °F 29.95 in ESE 6.0 mph 6.0 mph 44% 0.00 in 438.00 W/m2
10:06 66.4 °F 43.2 °F 29.95 in Calm   1.0 mph 43% 0.00 in 450.00 W/m2
10:11 66.7 °F 43.5 °F 29.95 in Calm   8.0 mph 43% 0.00 in 462.00 W/m2
10:16 67.1 °F 42.6 °F 29.95 in Calm   1.0 mph 41% 0.00 in 473.00 W/m2
10:21 67.5 °F 42.3 °F 29.96 in Calm     40% 0.00 in 485.00 W/m2
10:26 67.9 °F 44.0 °F 29.95 in ESE 4.0 mph 6.0 mph 42% 0.00 in 494.00 W/m2
10:31 68.3 °F 43.7 °F 29.96 in Calm   2.0 mph 41% 0.00 in 503.00 W/m2
10:36 68.7 °F 42.8 °F 29.96 in Calm   1.0 mph 39% 0.00 in 517.00 W/m2
10:41 69.1 °F 42.5 °F 29.96 in ESE 4.0 mph 6.0 mph 38% 0.00 in 526.00 W/m2
10:46 69.5 °F 43.5 °F 29.95 in Calm     39% 0.00 in 538.00 W/m2
10:51 69.9 °F 44.5 °F 29.96 in Calm     40% 0.00 in 547.00 W/m2
10:56 70.4 °F 46.2 °F 29.96 in Calm     42% 0.00 in 555.00 W/m2
11:01 70.8 °F 46.0 °F 29.96 in Calm     41% 0.00 in 563.00 W/m2
11:06 71.2 °F 46.3 °F 29.96 in SE 4.0 mph 6.0 mph 41% 0.00 in 570.00 W/m2
11:11 71.6 °F 45.4 °F 29.96 in SE 4.0 mph 5.0 mph 39% 0.00 in 577.00 W/m2
11:16 72.2 °F 46.6 °F 29.96 in SE 4.0 mph 4.0 mph 40% 0.00 in 584.00 W/m2
11:21 72.8 °F 47.1 °F 29.96 in Calm     40% 0.00 in 592.00 W/m2
11:26 73.3 °F 47.5 °F 29.96 in SE 1.0 mph 4.0 mph 40% 0.00 in 599.00 W/m2
11:31 73.9 °F 48.1 °F 29.96 in Calm   4.0 mph 40% 0.00 in 605.00 W/m2
11:36 74.3 °F 47.8 °F 29.96 in Calm     39% 0.00 in 612.00 W/m2
11:41 74.7 °F 48.8 °F 29.96 in Calm     40% 0.00 in 619.00 W/m2
11:43 74.8 °F 48.9 °F 29.96 in Calm     40% 0.00 in 617.00 W/m2
11:48 75.0 °F 47.0 °F 29.96 in SE 2.0 mph 2.0 mph 37% 0.00 in 624.00 W/m2
11:53 75.2 °F 47.9 °F 29.96 in Calm   1.0 mph 38% 0.00 in 626.00 W/m2
11:58 75.4 °F 46.6 °F 29.96 in Calm     36% 0.00 in 631.00 W/m2
12:03 75.5 °F 47.4 °F 29.96 in Calm   1.0 mph 37% 0.00 in 636.00 W/m2
12:08 75.6 °F 47.5 °F 29.96 in Calm   1.0 mph 37% 0.00 in 640.00 W/m2
12:13 75.7 °F 48.3 °F 29.96 in Calm   4.0 mph 38% 0.00 in 643.00 W/m2
12:18 75.9 °F 47.1 °F 29.95 in Calm     36% 0.00 in 647.00 W/m2
12:23 76.0 °F 48.6 °F 29.95 in Calm   1.0 mph 38% 0.00 in 650.00 W/m2
12:28 76.2 °F 48.0 °F 29.95 in SE 4.0 mph 4.0 mph 37% 0.00 in 652.00 W/m2
12:33 76.4 °F 48.2 °F 29.95 in SE 1.0 mph 5.0 mph 37% 0.00 in 650.00 W/m2
12:38 76.6 °F 47.7 °F 29.95 in Calm   4.0 mph 36% 0.00 in 652.00 W/m2
12:43 76.7 °F 48.5 °F 29.94 in Calm   1.0 mph 37% 0.00 in 652.00 W/m2
12:48 76.8 °F 48.6 °F 29.94 in WSW 5.0 mph 8.0 mph 37% 0.00 in 654.00 W/m2
12:53 76.9 °F 49.4 °F 29.95 in SW 1.0 mph 1.0 mph 38% 0.00 in 652.00 W/m2
12:58 76.9 °F 48.7 °F 29.94 in Calm   3.0 mph 37% 0.00 in 654.00 W/m2
13:03 77.1 °F 48.1 °F 29.94 in Calm     36% 0.00 in 652.00 W/m2
13:09 77.3 °F 48.3 °F 29.94 in Calm   3.0 mph 36% 0.00 in 649.00 W/m2
13:14 77.4 °F 47.6 °F 29.94 in Calm   5.0 mph 35% 0.00 in 647.00 W/m2
13:19 77.5 °F 47.0 °F 29.94 in Calm   5.0 mph 34% 0.00 in 645.00 W/m2
13:24 77.6 °F 47.0 °F 29.93 in WNW 4.0 mph 6.0 mph 34% 0.00 in 640.00 W/m2
13:29 77.6 °F 47.0 °F 29.93 in WNW 4.0 mph 5.0 mph 34% 0.00 in 638.00 W/m2
13:34 77.7 °F 47.9 °F 29.93 in Calm   3.0 mph 35% 0.00 in 633.00 W/m2
13:39 77.8 °F 47.2 °F 29.93 in Calm   2.0 mph 34% 0.00 in 628.00 W/m2
13:44 77.9 °F 47.3 °F 29.93 in WNW 2.0 mph 4.0 mph 34% 0.00 in 624.00 W/m2
13:49 78.0 °F 48.2 °F 29.93 in Calm   6.0 mph 35% 0.00 in 617.00 W/m2
13:54 78.2 °F 46.8 °F 29.93 in Calm   4.0 mph 33% 0.00 in 612.00 W/m2
13:59 78.3 °F 46.9 °F 29.93 in Calm   5.0 mph 33% 0.00 in 606.00 W/m2
14:04 78.4 °F 47.0 °F 29.93 in WNW 4.0 mph 4.0 mph 33% 0.00 in 601.00 W/m2
14:09 78.5 °F 47.0 °F 29.93 in Calm   5.0 mph 33% 0.00 in 592.00 W/m2
14:14 78.6 °F 47.1 °F 29.93 in Calm   1.0 mph 33% 0.00 in 585.00 W/m2
14:19 78.7 °F 47.2 °F 29.93 in Calm   2.0 mph 33% 0.00 in 577.00 W/m2
14:24 78.9 °F 47.4 °F 29.92 in Calm   5.0 mph 33% 0.00 in 570.00 W/m2
14:29 79.0 °F 46.7 °F 29.92 in Calm   1.0 mph 32% 0.00 in 563.00 W/m2
14:34 79.1 °F 45.9 °F 29.92 in Calm   3.0 mph 31% 0.00 in 554.00 W/m2
14:39 79.1 °F 45.9 °F 29.92 in Calm   3.0 mph 31% 0.00 in 545.00 W/m2
14:44 79.2 °F 46.0 °F 29.92 in Calm   2.0 mph 31% 0.00 in 534.00 W/m2
14:49 79.2 °F 46.0 °F 29.92 in WNW 2.0 mph 4.0 mph 31% 0.00 in 526.00 W/m2
14:54 79.2 °F 46.8 °F 29.92 in WSW 4.0 mph 7.0 mph 32% 0.00 in 515.00 W/m2
14:59 79.2 °F 46.8 °F 29.92 in WSW 4.0 mph 4.0 mph 32% 0.00 in 506.00 W/m2
15:04 79.3 °F 47.7 °F 29.92 in West 3.0 mph 6.0 mph 33% 0.00 in 494.00 W/m2
15:09 79.3 °F 47.7 °F 29.92 in Calm   4.0 mph 33% 0.00 in 483.00 W/m2
15:14 79.3 °F 47.7 °F 29.92 in West 3.0 mph 3.0 mph 33% 0.00 in 471.00 W/m2
15:19 79.3 °F 49.3 °F 29.93 in WNW 1.0 mph 6.0 mph 35% 0.00 in 459.00 W/m2
15:25 79.2 °F 48.4 °F 29.92 in Calm   1.0 mph 34% 0.00 in 446.00 W/m2
15:30 79.2 °F 50.0 °F 29.92 in Calm   4.0 mph 36% 0.00 in 434.00 W/m2
15:35 79.1 °F 50.6 °F 29.92 in Calm   2.0 mph 37% 0.00 in 420.00 W/m2
15:40 78.8 °F 49.6 °F 29.92 in Calm   6.0 mph 36% 0.00 in 408.00 W/m2
15:45 78.7 °F 50.3 °F 29.92 in Calm   7.0 mph 37% 0.00 in 396.00 W/m2
15:50 78.7 °F 50.3 °F 29.92 in Calm   6.0 mph 37% 0.00 in 383.00 W/m2
15:55 78.5 °F 50.1 °F 29.93 in Calm   5.0 mph 37% 0.00 in 367.00 W/m2
16:00 78.4 °F 50.0 °F 29.93 in West 2.0 mph 6.0 mph 37% 0.00 in 355.00 W/m2
16:05 78.3 °F 49.9 °F 29.93 in WNW 2.0 mph 8.0 mph 37% 0.00 in 339.00 W/m2
16:10 78.2 °F 49.8 °F 29.93 in Calm   6.0 mph 37% 0.00 in 327.00 W/m2
16:15 78.1 °F 50.5 °F 29.93 in Calm   6.0 mph 38% 0.00 in 311.00 W/m2
16:20 78.0 °F 50.4 °F 29.93 in Calm   5.0 mph 38% 0.00 in 297.00 W/m2
16:25 77.8 °F 50.2 °F 29.93 in Calm     38% 0.00 in 283.00 W/m2
16:30 77.6 °F 50.7 °F 29.93 in Calm   5.0 mph 39% 0.00 in 269.00 W/m2
16:35 77.5 °F 50.6 °F 29.93 in Calm   3.0 mph 39% 0.00 in 255.00 W/m2
16:40 77.3 °F 51.1 °F 29.93 in Calm   1.0 mph 40% 0.00 in 239.00 W/m2
16:45 77.0 °F 49.5 °F 29.93 in Calm   1.0 mph 38% 0.00 in 221.00 W/m2
16:50 76.9 °F 50.1 °F 29.93 in Calm   1.0 mph 39% 0.00 in 204.00 W/m2
16:55 76.8 °F 50.0 °F 29.93 in Calm   1.0 mph 39% 0.00 in 183.00 W/m2
17:00 76.7 °F 49.9 °F 29.93 in Calm   1.0 mph 39% 0.00 in 163.00 W/m2
17:05 76.5 °F 51.1 °F 29.93 in Calm     41% 0.00 in 144.00 W/m2
17:10 76.3 °F 50.2 °F 29.93 in Calm     40% 0.00 in 123.00 W/m2
17:15 76.1 °F 50.7 °F 29.93 in Calm     41% 0.00 in 109.00 W/m2
17:20 75.9 °F 50.5 °F 29.93 in Calm     41% 0.00 in 90.00 W/m2
17:25 75.5 °F 50.8 °F 29.93 in Calm     42% 0.00 in 74.00 W/m2
17:30 75.2 °F 50.6 °F 29.93 in Calm     42% 0.00 in 58.00 W/m2
17:40 74.6 °F 50.7 °F 29.93 in Calm     43% 0.00 in 33.00 W/m2
17:45 74.2 °F 50.9 °F 29.93 in Calm     44% 0.00 in 23.00 W/m2
17:50 73.9 °F 50.6 °F 29.93 in Calm     44% 0.00 in 16.00 W/m2
17:55 73.4 °F 50.8 °F 29.94 in Calm     45% 0.00 in 12.00 W/m2
18:00 73.0 °F 50.4 °F 29.94 in Calm     45% 0.00 in 11.00 W/m2
18:05 72.6 °F 51.2 °F 29.94 in Calm     47% 0.00 in 9.00 W/m2
18:10 72.1 °F 50.8 °F 29.94 in Calm     47% 0.00 in 7.00 W/m2
18:15 71.5 °F 50.8 °F 29.94 in Calm     48% 0.00 in 5.00 W/m2
18:20 71.1 °F 50.4 °F 29.94 in Calm     48% 0.00 in 0.00 W/m2
18:25 70.7 °F 50.1 °F 29.94 in Calm     48% 0.00 in 0.00 W/m2
18:30 70.2 °F 50.2 °F 29.94 in Calm     49% 0.00 in 0.00 W/m2
18:35 69.8 °F 49.8 °F 29.94 in Calm     49% 0.00 in 0.00 W/m2
18:40 69.4 °F 48.9 °F 29.94 in Calm     48% 0.00 in 0.00 W/m2
18:45 69.2 °F 48.7 °F 29.94 in Calm     48% 0.00 in 0.00 W/m2
18:50 69.0 °F 49.1 °F 29.94 in Calm     49% 0.00 in 0.00 W/m2
18:55 68.7 °F 49.3 °F 29.94 in Calm     50% 0.00 in 0.00 W/m2
19:00 68.4 °F 49.1 °F 29.94 in Calm     50% 0.00 in 0.00 W/m2
19:05 68.1 °F 48.2 °F 29.94 in Calm     49% 0.00 in 0.00 W/m2
19:10 67.9 °F 48.6 °F 29.94 in Calm     50% 0.00 in 0.00 W/m2
19:15 67.7 °F 48.4 °F 29.94 in Calm     50% 0.00 in 0.00 W/m2
19:20 67.6 °F 48.8 °F 29.94 in Calm     51% 0.00 in 0.00 W/m2
19:25 67.4 °F 48.1 °F 29.94 in Calm     50% 0.00 in 0.00 W/m2
19:30 67.2 °F 48.0 °F 29.94 in Calm     50% 0.00 in 0.00 W/m2
19:35 67.0 °F 48.3 °F 29.94 in Calm     51% 0.00 in 0.00 W/m2
19:40 66.8 °F 48.1 °F 29.95 in Calm     51% 0.00 in 0.00 W/m2
19:45 66.7 °F 48.0 °F 29.95 in Calm     51% 0.00 in 0.00 W/m2
19:50 66.6 °F 47.9 °F 29.95 in Calm     51% 0.00 in 0.00 W/m2
19:55 66.5 °F 47.8 °F 29.95 in Calm     51% 0.00 in 0.00 W/m2
20:00 66.5 °F 47.8 °F 29.94 in Calm     51% 0.00 in 0.00 W/m2
20:05 66.5 °F 47.8 °F 29.94 in Calm     51% 0.00 in 0.00 W/m2
20:11 66.5 °F 47.8 °F 29.94 in Calm     51% 0.00 in 0.00 W/m2
20:16 66.5 °F 47.8 °F 29.94 in Calm     51% 0.00 in 0.00 W/m2
20:21 66.5 °F 48.3 °F 29.94 in Calm     52% 0.00 in 0.00 W/m2
20:26 66.4 °F 48.3 °F 29.94 in Calm     52% 0.00 in 0.00 W/m2
20:31 66.4 °F 48.8 °F 29.94 in Calm     53% 0.00 in 0.00 W/m2
20:36 66.3 °F 48.2 °F 29.94 in Calm     52% 0.00 in 0.00 W/m2
20:41 66.3 °F 48.2 °F 29.95 in Calm     52% 0.00 in 0.00 W/m2
20:46 66.3 °F 48.2 °F 29.95 in Calm     52% 0.00 in 0.00 W/m2
20:51 66.3 °F 48.2 °F 29.95 in Calm     52% 0.00 in 0.00 W/m2
20:56 66.3 °F 48.2 °F 29.95 in Calm     52% 0.00 in 0.00 W/m2
21:01 66.3 °F 48.7 °F 29.95 in WNW 1.0 mph 2.0 mph 53% 0.00 in 0.00 W/m2
21:06 66.4 °F 49.3 °F 29.95 in Calm   2.0 mph 54% 0.00 in 0.00 W/m2
21:11 66.4 °F 49.3 °F 29.95 in West 4.0 mph 4.0 mph 54% 0.00 in 0.00 W/m2
21:16 66.4 °F 49.3 °F 29.96 in Calm   2.0 mph 54% 0.00 in 0.00 W/m2
21:21 66.5 °F 49.4 °F 29.96 in Calm   1.0 mph 54% 0.00 in 0.00 W/m2
21:26 66.4 °F 49.3 °F 29.96 in Calm     54% 0.00 in 0.00 W/m2
21:31 66.5 °F 49.8 °F 29.96 in WNW 2.0 mph 4.0 mph 55% 0.00 in 0.00 W/m2
21:36 66.5 °F 49.8 °F 29.96 in WNW 3.0 mph 4.0 mph 55% 0.00 in 0.00 W/m2
21:41 66.4 °F 49.8 °F 29.96 in Calm     55% 0.00 in 0.00 W/m2
21:46 66.4 °F 50.2 °F 29.96 in WNW 2.0 mph 2.0 mph 56% 0.00 in 0.00 W/m2
21:51 66.4 °F 49.8 °F 29.96 in WNW 2.0 mph 2.0 mph 55% 0.00 in 0.00 W/m2
21:56 66.3 °F 49.7 °F 29.96 in WNW 3.0 mph 4.0 mph 55% 0.00 in 0.00 W/m2
22:01 66.2 °F 49.6 °F 29.96 in Calm     55% 0.00 in 0.00 W/m2
22:06 66.2 °F 50.1 °F 29.96 in WNW 5.0 mph 5.0 mph 56% 0.00 in 0.00 W/m2
22:11 66.1 °F 50.0 °F 29.97 in Calm   2.0 mph 56% 0.00 in 0.00 W/m2
22:16 66.1 °F 50.0 °F 29.97 in Calm   3.0 mph 56% 0.00 in 0.00 W/m2
22:21 66.0 °F 49.9 °F 29.97 in WNW 4.0 mph 4.0 mph 56% 0.00 in 0.00 W/m2
22:26 65.9 °F 49.8 °F 29.97 in ENE 5.0 mph 7.0 mph 56% 0.00 in 0.00 W/m2
22:31 65.8 °F 49.7 °F 29.97 in ENE 2.0 mph 4.0 mph 56% 0.00 in 0.00 W/m2
22:36 65.8 °F 49.7 °F 29.97 in East 4.0 mph 4.0 mph 56% 0.00 in 0.00 W/m2
22:41 65.7 °F 49.1 °F 29.97 in East 1.0 mph 6.0 mph 55% 0.00 in 0.00 W/m2
22:46 65.7 °F 49.1 °F 29.97 in East 5.0 mph 8.0 mph 55% 0.00 in 0.00 W/m2
22:51 65.6 °F 49.5 °F 29.97 in East 4.0 mph 5.0 mph 56% 0.00 in 0.00 W/m2
22:56 65.6 °F 49.5 °F 29.97 in East 4.0 mph 8.0 mph 56% 0.00 in 0.00 W/m2
23:01 65.6 °F 49.5 °F 29.97 in East 1.0 mph 7.0 mph 56% 0.00 in 0.00 W/m2
23:06 65.5 °F 48.9 °F 29.97 in East 2.0 mph 6.0 mph 55% 0.00 in 0.00 W/m2
23:11 65.5 °F 48.9 °F 29.96 in East 5.0 mph 8.0 mph 55% 0.00 in 0.00 W/m2
23:16 65.5 °F 48.4 °F 29.96 in East 1.0 mph 8.0 mph 54% 0.00 in 0.00 W/m2
23:22 65.4 °F 48.3 °F 29.96 in East 1.0 mph 8.0 mph 54% 0.00 in 0.00 W/m2
23:27 65.4 °F 47.8 °F 29.96 in East 2.0 mph 7.0 mph 53% 0.00 in 0.00 W/m2
23:32 65.4 °F 48.3 °F 29.96 in East 5.0 mph 5.0 mph 54% 0.00 in 0.00 W/m2
23:37 65.3 °F 48.2 °F 29.96 in East 2.0 mph 7.0 mph 54% 0.00 in 0.00 W/m2
23:42 65.3 °F 47.8 °F 29.96 in Calm   8.0 mph 53% 0.00 in 0.00 W/m2
23:47 65.2 °F 47.7 °F 29.97 in East 6.0 mph 6.0 mph 53% 0.00 in 0.00 W/m2
23:52 65.2 °F 47.7 °F 29.97 in East 4.0 mph 5.0 mph 53% 0.00 in 0.00 W/m2
23:57 65.1 °F 47.1 °F 29.96 in Calm   6.0 mph 52% 0.00 in 0.00 W/m2
Foresthill Weather
 WU-history PHP script courtesy of   Juneau County Weather.
powered by Cumulus v1.9.3 (1059)
Ambient Weather VWS v14.00
Top Contact Website Map Copyright © 2007 - 2018 Foresthillweather.com Never base important decisions on this or any weather information obtained from the Internet